User: anonymous   Login
Location: Unspecified
(0.0000°N, 0.0000°E)
Time: 18:55:33
(UTC+00:00)
Language:

Safir 2 - Orbit

View from above orbital plane
View from above orbital plane
View from above satellite
View from above satellite

Ground track
Ground track

The orbit data is extracted from the following two-line orbital elements,

1 25399U 98043F   19340.74988942 -.00000007 +00000-0 +15959-4 0  9991
2 25399 098.6748 278.7686 0002140 141.9957 218.1373 14.24652430111749
Epoch (UTC): 06 December 2019 17:59:50
Eccentricity: 0.0002140
inclination: 98.6748°
perigee height: 808 km
apogee height: 811 km
right ascension of ascending node: 278.7686°
argument of perigee: 141.9957°
revolutions per day: 14.24652430
mean anomaly at epoch: 218.1373°
orbit number at epoch: 11174

The dashed part of the orbit path shows where the satellite is in the earth's shadow,  

DLR